Temp
18 18 18 18 18 18 18 17 17 17 17 17 17 17 17 16 16 16 16 15 14 14 14 13 12 11 10 10 10 10 10 10 10 11 11 11 12 13 13 13 14 14 15
17 17 17 16 17 17 16 16 17 16 16 16 16 16 16 16 16 16 15 15 15 13 12 12 10 10 9 9 9 9 9 9 10 10 10 10 10 11 12 13 13 13 14
16 16 16 16 16 16 16 16 16 16 15 15 15 15 15 15 15 15 15 15 15 14 12 12 11 10 9 9 9 9 9 9 9 9 9 9 9 10 10 10 12 12 13
15 16 16 16 15 15 15 15 15 14 14 14 14 14 15 14 14 14 14 14 14 12 12 11 11 10 9 9 9 8 9 9 8 8 8 8 8 8 8 9 9 11 12
15 16 16 15 15 15 15 14 13 13 13 13 13 14 13 13 13 13 13 13 13 13 12 11 11 10 10 8 8 8 8 8 8 8 7 7 7 7 7 8 8 9 10
15 15 15 14 14 14 14 13 13 12 12 12 12 12 13 12 12 12 13 13 13 12 12 11 10 10 9 8 8 8 8 7 8 7 6 6 6 6 6 7 8 8 9
14 14 14 14 14 13 12 12 12 12 11 11 11 11 11 11 11 12 11 11 11 11 11 10 9 9 8 7 7 7 7 7 6 6 5 5 5 5 6 6 7 8 8
14 14 13 13 12 12 12 12 11 11 11 11 10 10 8 10 11 10 10 10 10 10 9 9 9 8 7 7 6 6 6 5 5 5 5 4 4 4 5 6 6 7 8
13 13 13 12 12 11 11 11 11 10 10 9 10 9 7 7 8 9 9 9 9 9 9 8 8 8 7 7 6 6 5 5 5 4 4 4 4 4 4 5 6 6 7
13 13 13 12 12 11 10 10 10 10 9 9 9 9 8 8 6 6 8 8 8 8 8 8 7 7 7 6 6 6 6 5 4 3 3 3 3 3 4 5 6 6 7
13 12 12 11 10 10 10 10 9 9 9 8 8 7 7 8 8 6 5 6 7 7 7 7 7 6 6 6 6 5 5 4 3 3 3 3 3 3 3 4 5 6 7
12 11 11 10 9 9 9 9 9 9 8 7 6 6 7 7 6 6 4 5 5 6 6 5 6 5 5 5 4 4 4 4 3 2 2 2 2 2 3 3 4 4 5
11 10 9 9 8 8 8 9 8 7 7 6 6 6 6 6 6 5 5 4 4 4 4 5 5 5 4 4 4 4 3 3 2 2 2 2 2 2 2 2 3 3 4
10 9 9 8 8 8 8 8 7 7 6 5 5 5 5 5 5 5 5 4 2 3 3 3 4 4 4 3 3 3 2 2 1 1 1 1 1 1 1 1 2 2 2
9 9 8 8 8 7 7 7 7 6 5 5 5 4 4 4 3 4 4 4 3 1 2 3 3 3 3 3 2 1 1 1 1 0 0 1 1 1 1 1 1 1 1
8 8 8 7 7 7 7 7 7 6 6 5 4 4 3 3 4 3 3 3 3 3 1 3 3 3 2 1 0 0 -0 -0 -0 -0 0 1 1 1 1 0 1 1 2
8 8 7 7 7 7 7 6 6 6 5 4 4 4 2 2 3 3 3 3 3 2 1 1 1 1 0 -1 -1 -1 -1 -1 -0 0 0 1 1 1 1 0 1 1 1
8 7 7 7 7 7 6 5 5 5 5 4 4 3 3 2 2 2 2 1 0 -0 -0 -1 -1 -1 -1 -1 -1 -1 -1 -1 -0 -0 0 0 -0 -0 -0 -0 0 1 1
8 7 6 6 6 6 6 5 4 4 4 4 3 3 2 2 2 1 0 -1 -2 -2 -2 -2 -2 -2 -2 -2 -2 -2 -1 -1 -1 -1 -0 0 -1 -1 -1 -1 -0 1 1
7 7 6 6 6 6 6 5 4 4 3 3 2 2 2 2 1 -0 -1 -2 -3 -3 -3 -3 -3 -3 -3 -3 -2 -2 -2 -2 -2 -2 -1 -1 -1 -1 -1 -0 0 0 0
7 6 6 6 6 5 4 3 3 2 2 2 2 2 2 1 0 -1 -2 -3 -4 -4 -4 -4 -4 -4 -4 -3 -3 -3 -4 -4 -3 -2 -1 -1 -3 -2 -2 -1 -0 0 1
7 7 6 6 5 4 3 2 2 1 1 1 1 1 1 0 -1 -1 -3 -3 -4 -4 -5 -5 -5 -4 -4 -4 -5 -5 -5 -4 -4 -3 -3 -2 -2 -2 -3 -2 -1 -1 0
7 6 6 5 5 3 2 2 1 1 0 1 0 -0 -1 -1 -1 -2 -3 -4 -4 -5 -4 -4 -4 -4 -5 -5 -5 -5 -5 -5 -5 -4 -3 -3 -2 -1 -1 -0 0 0 0
6 6 5 5 4 3 2 1 1 0 -0 -0 -0 -1 -1 -2 -3 -4 -4 -5 -6 -5 -5 -4 -5 -5 -5 -5 -5 -6 -6 -5 -5 -4 -3 -3 -3 -2 -1 -0 -0 -0 -0
5 5 5 5 4 3 2 1 -0 -1 -1 -1 -1 -2 -2 -2 -3 -4 -5 -7 -7 -6 -6 -5 -6 -6 -6 -5 -5 -5 -6 -6 -5 -4 -3 -3 -3 -3 -2 -1 -0 0 -0
5 5 4 4 3 2 1 -0 -1 -1 -2 -2 -2 -2 -2 -3 -4 -5 -7 -7 -8 -7 -7 -7 -7 -6 -5 -5 -4 -5 -5 -5 -5 -5 -3 -4 -4 -4 -2 -0 -1 -1 -0
Height
855 853 857 858 856 855 856 858 859 860 860 860 859 857 856 856 855 854 853 851 850 849 848 846 845 846 846 846 845 843 842 840 839 838 837 835 833 831 830 830 829 828 829
854 852 854 856 855 853 856 859 860 859 859 858 857 855 855 855 854 853 852 849 849 847 846 845 845 845 845 846 845 844 842 840 838 837 836 835 834 832 829 827 827 826 825
852 851 854 856 855 855 857 859 858 859 858 857 856 855 854 854 852 851 850 849 845 842 843 842 843 843 843 844 844 843 842 840 838 837 835 833 832 832 830 827 823 823 824
851 853 856 855 856 856 858 858 858 857 856 856 854 854 852 851 850 850 848 847 847 842 841 840 840 840 841 841 842 841 841 840 838 837 835 832 830 829 828 827 824 820 819
852 854 854 855 856 857 858 858 857 856 856 855 853 851 849 849 849 848 846 845 844 842 841 839 837 839 840 840 839 839 838 837 836 835 834 832 829 826 824 823 822 821 818
853 854 854 855 856 857 857 856 856 855 855 853 851 849 847 847 848 846 844 843 842 840 839 838 837 839 838 837 837 837 837 837 834 833 832 831 829 825 822 819 818 817 815
854 854 855 856 856 856 855 855 854 853 852 851 849 847 845 845 845 844 842 841 839 838 838 837 836 836 836 836 836 836 836 834 833 832 831 829 826 823 820 816 813 812 812
853 854 855 855 854 854 854 853 852 850 850 850 849 846 843 843 842 840 840 839 838 837 836 835 833 835 835 834 834 835 834 832 831 830 828 826 823 820 817 813 810 807 805
853 854 854 854 853 853 852 851 850 849 847 848 849 849 845 843 841 841 839 838 836 835 835 834 833 832 832 831 831 831 830 828 826 826 825 823 821 817 813 809 806 803 800
853 853 853 852 851 850 849 849 848 846 846 846 847 846 845 844 842 839 839 838 837 835 834 833 831 830 829 828 828 827 826 823 821 820 820 819 816 813 810 805 801 798 795
851 852 850 849 848 848 847 846 844 843 843 844 844 843 843 842 841 840 837 836 835 834 833 832 829 828 828 826 825 824 823 820 818 817 816 814 812 809 806 801 798 794 790
851 850 849 848 847 846 845 843 842 842 842 842 843 842 840 839 838 837 837 835 834 831 831 830 828 827 826 824 823 822 819 816 814 811 810 808 806 804 801 798 793 789 786
850 849 847 847 845 844 842 840 839 840 841 841 842 841 839 838 838 836 835 835 833 830 828 827 826 824 822 821 819 817 814 811 809 807 804 802 800 798 796 793 790 786 783
847 846 846 845 843 841 840 838 837 837 836 836 837 836 836 834 834 835 833 833 830 827 824 822 822 820 819 817 814 813 810 807 804 802 799 796 795 792 790 788 785 782 779
844 843 844 842 840 839 838 836 835 834 834 834 833 832 833 831 833 831 831 831 829 826 820 818 816 816 814 812 809 807 805 801 799 796 793 790 787 784 783 782 779 777 773
841 842 840 839 838 837 835 834 832 832 831 830 828 829 828 828 828 828 827 827 826 823 816 816 812 811 808 806 805 802 799 796 793 790 786 783 780 777 774 775 773 771 768
839 838 837 836 835 833 832 831 830 829 828 827 826 825 827 828 824 824 824 823 822 820 815 811 809 807 804 802 800 798 795 791 787 784 781 777 773 769 766 768 768 766 763
835 835 835 834 832 831 829 828 827 826 825 826 826 824 824 824 824 822 821 820 819 817 815 809 806 804 802 800 797 793 790 787 783 779 775 772 768 766 764 763 762 761 759
833 833 833 831 829 828 826 825 824 824 821 821 822 822 823 822 821 819 818 817 816 815 813 809 804 802 800 797 793 790 786 782 778 774 771 767 764 759 757 756 756 755 754
829 829 829 828 827 825 822 821 822 821 821 819 819 820 820 819 817 816 816 815 815 813 811 808 804 800 797 794 790 786 781 778 774 770 767 763 760 756 751 751 751 751 750
826 826 824 822 822 820 818 818 820 821 820 818 817 818 818 815 814 813 813 812 812 811 808 805 801 797 793 789 787 784 780 776 770 767 763 760 758 753 749 747 745 746 745
822 822 821 820 819 819 819 817 817 819 819 818 816 815 816 814 812 810 810 810 809 807 804 802 798 794 790 788 785 783 779 775 769 765 762 757 756 751 747 744 743 742 742
819 819 818 817 815 814 814 815 816 816 817 816 814 813 813 813 809 808 808 806 805 804 801 798 793 790 787 786 783 779 776 773 768 764 761 753 753 749 744 743 741 739 737
816 816 815 813 812 812 812 812 812 813 815 814 812 812 811 810 807 806 805 803 801 799 797 794 790 787 784 781 779 776 772 768 763 759 757 751 749 745 742 740 739 737 735
813 812 810 808 808 807 808 811 812 810 812 811 810 810 808 807 805 804 802 800 798 795 793 790 786 782 779 777 774 770 766 765 759 755 752 750 746 741 737 735 735 734 733
809 807 808 809 806 802 806 807 808 809 808 808 808 807 805 804 803 801 800 798 795 792 789 785 782 778 775 772 769 765 762 759 757 752 749 748 744 743 734 731 731 731 730
Wind_Speed
4 5 5 9 8 6 8 12 14 15 16 14 16 12 16 15 14 15 15 17 17 12 9 6 6 8 11 14 16 17 17 17 18 18 17 15 12 14 15 14 15 13 15
3 3 8 7 6 5 9 10 13 12 14 17 16 17 17 18 17 16 13 15 18 14 6 4 8 11 12 14 15 17 18 18 18 19 19 18 18 16 15 18 15 17 15
3 3 3 6 6 6 8 10 11 14 13 16 18 19 19 18 18 20 19 19 23 15 6 4 9 14 12 13 15 16 18 18 18 19 20 20 19 18 19 18 19 16 18
1 4 5 2 5 6 7 8 10 12 16 18 18 21 18 16 20 24 19 17 16 5 7 5 9 15 13 11 15 17 20 17 17 19 18 20 23 22 20 20 20 21 19
7 4 2 3 5 6 8 9 10 14 16 18 20 21 17 21 20 21 22 19 20 8 7 10 10 15 14 11 15 20 21 18 19 19 16 21 23 25 25 23 21 22 23
5 4 2 3 5 6 8 11 13 14 15 17 20 21 17 13 21 24 25 15 14 9 11 10 14 9 13 16 16 16 17 23 20 16 20 22 24 25 27 28 24 23 23
5 4 3 5 6 7 10 12 14 14 14 16 19 17 16 18 16 22 16 22 21 20 19 13 12 14 14 15 14 16 20 16 16 20 22 25 25 25 27 28 29 26 23
3 3 3 4 7 10 12 13 14 15 12 13 14 19 4 10 15 17 22 19 20 20 17 17 19 15 11 13 12 18 17 17 18 21 23 25 27 28 28 28 28 29 27
2 2 5 7 9 10 12 14 14 15 8 11 14 10 4 3 15 14 18 22 21 20 20 16 16 14 15 15 19 17 18 24 22 20 25 27 29 29 29 29 29 29 29
3 5 6 8 8 11 13 14 13 13 11 11 13 14 17 19 4 7 9 15 20 20 21 20 19 15 15 19 19 17 22 21 20 16 22 28 31 30 29 29 28 29 29
6 7 8 11 13 15 15 16 16 15 12 12 12 14 13 15 16 9 6 11 18 20 23 21 17 20 20 17 19 20 17 20 19 21 25 29 30 30 29 28 28 28 28
6 7 9 11 13 14 16 16 14 10 6 11 16 15 11 11 11 10 5 12 15 18 18 22 21 20 18 20 21 24 25 27 27 26 27 29 31 29 28 28 27 25 25
7 9 11 12 13 15 16 16 11 10 11 17 14 15 14 14 12 11 12 14 10 21 22 21 22 23 22 25 27 23 27 26 26 28 29 30 30 30 28 28 27 25 24
6 9 10 13 14 16 16 13 14 14 14 15 17 17 15 13 13 14 11 12 8 16 19 22 21 23 25 27 20 25 26 27 26 27 29 30 32 31 30 28 28 26 24
6 9 12 13 15 17 18 15 17 17 18 17 15 14 15 11 16 11 13 17 16 7 9 22 23 22 22 22 23 26 27 27 29 31 33 33 33 32 30 27 25 24 23
6 10 12 13 14 15 16 18 15 15 16 17 16 16 17 10 12 10 12 17 20 21 10 22 23 22 17 24 23 26 29 31 32 32 33 34 34 34 29 23 23 22 20
8 10 13 14 16 17 17 13 14 17 16 18 17 10 11 15 10 12 14 18 19 20 16 23 25 23 26 26 27 28 29 30 31 28 28 32 32 30 27 24 23 20 18
9 11 13 16 16 18 15 15 16 17 13 14 11 8 8 11 13 14 17 16 18 21 23 22 24 24 24 25 26 27 26 26 29 28 29 29 27 23 24 21 25 26 21
10 10 14 16 17 18 14 11 10 11 10 10 10 9 10 12 15 13 13 17 20 20 21 22 24 24 23 23 26 26 26 26 25 25 26 24 25 26 27 21 21 19 19
11 11 14 15 18 18 14 8 7 8 12 10 8 8 12 13 11 13 13 15 15 18 20 20 21 22 22 24 24 23 23 24 25 26 25 24 25 24 16 22 22 24 20
13 14 13 14 16 14 8 4 5 10 9 7 9 12 14 14 15 15 13 14 13 16 18 20 20 22 21 19 19 21 20 23 27 25 23 22 22 24 20 23 25 24 17
14 13 13 14 10 8 7 5 7 4 7 12 12 12 13 13 8 11 10 8 13 17 21 21 22 21 22 21 20 20 21 20 13 21 24 25 22 22 23 14 11 9 10
14 14 14 12 11 8 8 6 4 5 7 11 12 12 13 12 13 12 13 16 19 19 22 24 23 21 19 18 21 22 22 21 22 26 25 24 23 24 23 18 15 12 16
13 15 14 12 9 9 9 7 6 5 6 11 10 11 12 9 13 13 16 21 17 19 20 21 18 21 22 25 27 24 25 25 26 24 21 18 22 25 26 23 17 15 17
16 14 15 12 8 10 9 9 7 4 6 10 10 11 12 10 12 14 19 17 18 19 18 21 25 22 22 23 24 25 23 18 18 20 21 20 20 25 23 22 22 19 18
15 13 8 8 6 6 7 9 7 6 6 9 10 10 14 7 10 13 14 15 17 18 23 26 22 22 22 22 20 18 18 17 16 14 11 9 15 17 7 10 11 15 19
Wind_Direction
175 139 356 312 339 4 340 2 353 342 343 334 337 343 346 337 326 319 317 323 329 317 322 342 355 9 14 8 5 2 357 355 351 353 353 350 325 302 301 305 303 304 286
214 317 348 320 354 357 357 347 342 343 340 347 342 339 338 328 324 331 326 311 305 296 295 356 21 21 7 2 357 353 349 347 345 343 341 342 344 334 308 297 296 295 298
266 305 300 1 5 354 357 341 345 342 338 328 334 336 327 323 329 323 316 306 305 272 254 343 9 0 4 1 353 351 347 343 342 340 337 337 338 337 334 317 300 294 287
206 65 46 68 338 19 339 339 336 341 337 332 327 320 316 325 322 316 310 320 323 269 309 299 354 360 352 354 342 338 337 332 336 336 335 336 334 332 330 327 319 304 290
87 85 121 358 354 350 342 343 339 335 329 326 321 317 320 325 328 320 318 309 301 286 297 299 326 345 324 350 343 333 333 330 324 325 328 328 328 325 323 321 318 314 306
84 90 9 3 9 339 342 339 333 320 313 321 322 313 311 316 311 316 309 281 309 356 346 339 332 333 337 346 339 333 324 320 319 321 325 327 323 321 319 316 314 311 308
77 51 36 17 353 346 339 332 320 320 319 321 324 327 320 317 314 316 343 341 337 331 315 327 355 339 334 330 338 329 321 321 321 320 322 325 325 322 317 313 310 308 303
86 71 21 336 329 329 322 321 329 318 309 323 335 323 310 312 296 315 328 332 331 330 334 330 323 328 324 337 326 321 324 325 322 319 319 321 321 319 317 312 306 303 301
72 359 325 314 309 313 315 314 312 304 316 324 312 318 324 308 330 325 322 321 324 325 325 331 322 314 320 315 323 306 308 309 308 316 316 316 316 314 313 311 304 300 297
322 321 325 330 327 309 302 305 303 307 313 297 313 311 322 321 326 321 308 320 324 329 326 325 324 325 322 317 310 299 307 288 308 314 315 313 312 311 310 309 302 298 294
345 328 327 323 324 310 310 298 298 284 277 295 301 313 309 306 304 306 312 330 324 318 319 321 328 330 321 312 314 315 328 319 318 318 311 308 307 306 305 306 303 298 290
326 326 321 322 320 314 312 307 288 289 279 302 306 294 296 313 311 328 326 319 310 308 309 319 328 325 326 327 323 318 310 311 314 315 311 307 304 300 299 300 303 302 299
319 319 323 321 319 317 314 305 292 301 291 303 298 288 287 289 309 309 312 310 307 311 308 306 308 314 318 322 318 312 313 314 313 310 307 304 300 294 294 294 298 304 301
302 312 314 318 319 316 308 316 301 277 280 284 284 279 284 291 296 292 308 324 310 301 305 304 304 304 306 308 305 312 313 311 309 308 302 300 295 291 285 289 292 295 300
301 315 316 317 317 316 317 288 293 292 286 289 287 288 275 273 283 291 304 300 293 302 299 302 301 306 307 302 312 310 312 313 308 305 304 298 297 294 283 279 287 291 300
310 306 312 314 312 309 307 310 295 307 313 311 299 283 264 270 275 304 307 309 307 294 290 299 303 307 311 321 318 310 308 306 304 301 298 296 300 295 277 267 282 289 297
296 303 309 310 307 303 303 316 320 319 317 315 305 299 295 286 317 318 315 311 308 315 310 310 311 314 319 319 317 310 305 301 299 300 301 298 306 299 264 263 274 286 305
293 299 306 306 304 303 310 309 313 314 318 319 321 343 313 330 320 327 322 322 328 326 319 313 317 320 318 316 307 305 302 303 301 299 304 301 306 287 266 271 276 273 289
291 302 308 307 303 306 303 290 303 308 317 316 321 330 330 322 321 322 319 331 327 319 318 316 312 313 312 315 312 309 308 306 310 308 306 315 310 317 277 254 271 272 283
289 300 300 305 302 303 295 295 300 313 305 304 314 316 311 308 309 312 316 313 313 317 316 313 309 308 307 308 307 313 312 313 314 311 310 314 310 315 266 263 270 279 279
291 287 291 302 301 310 292 240 266 309 313 315 311 312 311 324 317 304 312 302 299 303 304 300 299 300 300 307 316 319 321 321 315 307 305 319 326 322 310 266 273 267 274
281 279 298 298 309 320 275 261 294 280 317 321 321 324 317 315 322 328 332 302 303 294 293 288 288 291 300 310 320 321 318 318 315 321 323 315 320 315 319 323 279 285 292
294 297 294 294 288 269 262 251 261 302 314 315 320 322 318 314 312 312 309 306 307 300 299 301 293 293 296 310 316 310 306 303 298 301 306 301 306 301 300 306 319 309 314
306 299 293 290 277 262 240 235 261 283 312 307 312 309 305 305 317 316 319 320 313 311 310 313 327 322 314 308 304 297 294 294 295 294 295 295 307 297 293 291 293 304 304
302 295 291 279 272 258 231 247 257 283 304 307 305 301 300 295 286 300 317 316 312 312 317 314 314 313 310 307 302 291 280 284 289 294 300 297 301 300 293 284 283 283 286
298 295 288 287 304 298 236 237 256 288 294 299 302 309 306 279 296 318 318 312 307 311 316 323 325 319 317 315 318 316 291 269 278 293 299 303 301 321 305 292 302 292 270